Regional Weather Roundup
Issued by NWS Tampa Bay Area, FL

Home | Current Version | Previous Version | Text Only | Print | Product List | Glossary On
Versions: 1 2 3 4 5 6 7 8 9 10 11 12 13 14 15 16 17 18 19 20 21 22 23 24 25 26 27 28 29 30 31 32 33 34 35 36 37 38 39 40 41 42 43 44 45 46 47 48 49
000
NZUS99 KTBW 190616
RWRTPA
FLORIDA REGIONAL WEATHER ROUNDUP
NATIONAL WEATHER SERVICE TAMPA BAY RUSKIN FL
200 AM EDT SUN MAY 19 2019

NOTE: "FAIR" INDICATES FEW OR NO CLOUDS BELOW 12,000 FEET WITH NO
SIGNIFICANT WEATHER AND/OR OBSTRUCTIONS TO VISIBILITY.



STATION/POSITION



FLZ042-048>051-055-056-060-061-190700-
EXTRA STATIONS

CITY           SKY/WX    TMP DP  RH WIND       PRES   REMARKS
Everglades Cty NOT AVBL
CRYSTAL RIVER  FAIR      64  59  82 CALM      30.02F
SEBRING        FAIR      69  64  84 CALM      30.02F
EGLIN AFB      FAIR      67  67 100 CALM      29.98F
CANAVERAL      FAIR      69  61  75 SE5       30.01F

$$
FLZ001>010-012>015-190700-
PANHANDLE FLORIDA

CITY           SKY/WX    TMP DP  RH WIND       PRES   REMARKS
PENSACOLA      FAIR      75  72  90 S7        29.96S
PENSACOLA NAS  FAIR      76  70  82 S12       29.96S
MILTON NAS     FAIR      67  67 100 SE3       29.97
CRESTVIEW      FAIR      64  62  93 CALM      30.00S
VALPARAISO     FAIR      73  69  87 CALM      29.97F
MARY ESTHER    CLEAR     75  69  82 CALM      29.96F
PANAMA CITY    FAIR      67  65  93 CALM      29.98F
TYNDALL AFB    FAIR      69  67  95 CALM      29.99S
APALACHICOLA   FAIR      69  65  86 NE5       29.98F

STATION/POSITION


29.2N   88.2W

$$
FLZ011-016>039-190700-
NORTH FLORIDA

CITY           SKY/WX    TMP DP  RH WIND       PRES   REMARKS
MARIANNA       FAIR      70  64  81 CALM      29.99S
TALLAHASSEE    MOCLDY    72  68  87 CALM      30.00F
PERRY          FAIR      71  70  97 E3        30.02S
CROSS CITY     FAIR      70  65  84 E6        30.02S
GAINESVILLE    FAIR      65  59  81 CALM      30.06F
MAYPORT NAS    FAIR      76  67  73 SE12      30.03F
JACKSONVILLE   FAIR      69  63  81 CALM      30.03F
JAX NAS        FAIR      75  64  68 S9        30.04F
JAX CRAIG      FAIR      67  64  90 S5        30.04F
ST AUGUSTINE   FAIR      69  65  86 SW3       30.04F

STATION/POSITION


KEATON BEACH
31.4N   80.9W

$$
FLZ040-043>046-052-053-057-058-063-190700-
CENTRAL FLORIDA

CITY           SKY/WX    TMP DP  RH WIND       PRES   REMARKS
OCALA          FAIR      64  60  87 CALM      30.03F
LEESBURG       FAIR      68  63  84 CALM      30.03F
SANFORD        FAIR      68  64  87 CALM      30.02F
ORLANDO EXEC   FAIR      69  63  81 SE3       30.02F
ORLANDO INTL   FAIR      70  64  81 SE7       30.02F
KISSIMMEE      FAIR      71  65  81 SE6       30.03F
WINTER HAVEN   FAIR      72  65  78 SE5       30.02F
BARTOW         FAIR      68  63  83 CALM      30.01F

$$
FLZ041-047-054-059-064-190700-
EAST CENTRAL FLORIDA

CITY           SKY/WX    TMP DP  RH WIND       PRES   REMARKS
DAYTONA BEACH  FAIR      67  65  93 CALM      30.03F
JFK SPACE CTR  FAIR      67  63  87 SE3       30.01F
PATRICK AFB    FAIR      76  69  78 SE6       30.01F
MELBOURNE      FAIR      77  66  68 SE3       30.02F
VERO BEACH     FAIR      69  65  86 E3        30.01F
FT PIERCE      FAIR      66  63  90 CALM      30.01F
STUART         FAIR      73  64  73 CALM      30.02S

STATION/POSITION


28.9N   78.5W

$$
FLZ042-048>051-055-056-060-061-190700-
WEST CENTRAL FLORIDA

CITY           SKY/WX    TMP DP  RH WIND       PRES   REMARKS
BROOKSVILLE    FAIR      65  60  84 CALM      30.02F
TAMPA          FAIR      75  63  66 SE8       30.01S
MACDILL AFB    FAIR      73  64  73 SE10      30.00F
ST PETERSBURG  FAIR      74  64  71 SE9       30.00F
ST PET-WHITTED FAIR      77  67  71 SE15      29.98F
SARASOTA       FAIR      74  64  71 E10       29.98F

STATION/POSITION


CEDAR KEY
VENICE

$$
FLZ062-065-066-069-070-075>078-190700-
SOUTHWEST FLORIDA AND KEYS

CITY           SKY/WX    TMP DP  RH WIND       PRES   REMARKS
PUNTA GORDA    FAIR      69  66  90 E5        30.02S
FT MYERS       FAIR      73  68  84 E5        29.99F
SOUTHWEST INTL FAIR      73  67  81 E5        30.00F
NAPLES         FAIR      73  68  84 E8        29.98F
MARATHON       FAIR      83  72  69 SE8       29.96F
KEY WEST NAS   FAIR      81  72  74 E9        29.97F
KEY WEST INTL  FAIR      80  72  76 SE12      29.97F

STATION/POSITION


VENICE
SAND KEY
SOMBRERO KEY

$$
FLZ067-068-071>074-190700-
SOUTHEAST FLORIDA

CITY           SKY/WX    TMP DP  RH WIND       PRES   REMARKS
W PALM BEACH   FAIR      79  68  69 E7        30.00F
POMPANO BEACH  FAIR      79  69  71 E7        29.99F
FT LAUDER-EXEC FAIR      77  69  76 E5        29.99F
FT LAUDERDALE  FAIR      79  70  74 E9        29.98F
PEMBROKE PINES FAIR      76  68  76 CALM      30.00F
OPA LOCKA      FAIR      78  69  73 NE3       29.99F
MIAMI          MOCLDY    80  70  71 E8        29.99F
WEST KENDALL   FAIR      77  70  79 E6        29.98F
HOMESTEAD      MOCLDY    78  72  82 E6        29.97F

STATION/POSITION


LAKE WORTH

$$




USA.gov is the U.S. government's official web portal to all federal, state and local government web resources and services.